Regional Weather Roundup
Issued by NWS Kansas City/Pleasant Hill, MO

Home | Current Version | Previous Version | Graphics & Text | Print | Product List | Glossary Off
Versions: 1 2 3 4 5 6 7 8 9 10 11 12 13 14 15 16 17 18 19 20 21 22 23 24 25 26 27 28 29 30 31 32 33 34 35 36 37 38 39 40 41 42 43 44 45 46 47 48 49 50

000
ASUS43 KEAX 071610
RWREAX

WEATHER ROUNDUP FOR EASTERN KANSAS AND NORTHWEST MISSOURI
NATIONAL WEATHER SERVICE KANSAS CITY/PLEASANT HILL MO
1000 AM CST SUN FEB 07 2016

KSZ040-057-103>105-MOZ028-029-037-043-071700-
...KANSAS CITY METROPOLITAN AREA...

CITY           SKY/WX    TMP DP  RH WIND       PRES   REMARKS
K.C. INTL      CLOUDY    43  29  57 NW10      30.04R
K.C. DOWNTOWN  MOSUNNY   45  28  51 W10G18    30.05R
LEES SUMMIT    CLOUDY    43  28  55 NW13      30.04R
OLATHE - IXD   MOSUNNY   43  28  55 NW15G24   30.06S
OLATHE - OJC   MOSUNNY   42  27  55 NW14G20   30.05S WCI  35
LAWRENCE       MOSUNNY   43  30  60 NW14      30.07S

$$

MOZ001>008-011>017-020>025-030>033-038>040-044>046-053-054-071700-
...NORTHERN AND CENTRAL MISSOURI...

CITY           SKY/WX    TMP DP  RH WIND       PRES   REMARKS
ST. JOSEPH     SUNNY     45  28  51 NW15      30.04S
MOSBY          PTSUNNY   43  30  61 W9        30.04R
WARRENSBURG    CLOUDY    41  30  65 W9        30.03R
WHITEMAN AFB   CLOUDY    43  28  56 W13       30.00F
CLINTON          N/A     43  32  65 W12       30.05S
SEDALIA        CLOUDY    42  28  57 W10G20    30.02R
WARSAW         NOT AVBL
CHILLICOTHE      N/A     42  29  59 W10G20    29.99R
KIRKSVILLE     MOSUNNY   40  27  59 W12       29.93R WCI  33

$$

MOZ041-047>049-056>058-063>065-088>090-097-071700-
...EASTERN AND SOUTHERN MISSOURI...

CITY           SKY/WX    TMP DP  RH WIND       PRES   REMARKS
ST. LOUIS INTL PTSUNNY   51  26  37 SW18G26   29.97F
SPIRIT OF STL  MOSUNNY   48  29  47 SW18G29   29.96F
COLUMBIA       CLOUDY    44  27  51 W21       29.99R
JEFFERSON CITY CLOUDY    45  27  49 W21G29    30.01R
ROLLA          SUNNY     45  30  55 SW15G26   29.98F
OSAGE BEACH    MOSUNNY   45  27  49 SW15G24   30.02S
SPRINGFIELD    SUNNY     46  28  49 W21G28    30.06S
BRANSON        PTSUNNY   46  30  53 W16G25    30.10S
JOPLIN         CLOUDY    43  29  57 SW16      30.12R
WEST PLAINS    CLOUDY    47  27  45 SW14G24   30.08F

$$

IAZ060-094-KSZ022-034>040-054-083-096-NEZ052-066-093-071700-
...KANSAS...SOUTHEAST NEBRASKA AND IOWA...

CITY           SKY/WX    TMP DP  RH WIND       PRES   REMARKS
TOPEKA         SUNNY     44  28  53 W9        30.09R
MANHATTAN      SUNNY     46  27  47 NW8       30.12R
EMPORIA        MOSUNNY   45  28  51 NW13      30.10R
CHANUTE        CLOUDY    42  28  57 W5        30.09F
WICHITA        CLOUDY    46  27  47 N16       30.15R
OMAHA          MOSUNNY   41  26  55 W18       29.99R WCI  32
LINCOLN        SUNNY     42  25  50 NW17      30.06R WCI  34
FALLS CITY     SUNNY     44  27  51 W14       30.04S
LAMONI         SUNNY     41  30  65 W18       29.95R WCI  32
DES MOINES     MOSUNNY   41  25  53 NW21G30   29.90R WCI  32

$$




USA.gov is the U.S. government's official web portal to all federal, state and local government web resources and services.